Probability
23 35 65 61 61 61 61 68 65 58 48 52 55 55 52 48 52 42 39 39 35 32 29 29 29 29 29 19 19 16 23 16 16 16 16 16 16 16 10 13 10 10 13
19 42 61 61 61 61 61 61 58 52 48 58 58 58 48 45 42 35 39 35 32 32 32 32 29 26 23 19 10 13 13 10 13 13 13 13 13 13 10 10 10 6 13
32 55 61 58 61 61 61 58 48 52 55 52 52 45 48 45 39 39 35 32 35 35 35 32 26 29 23 13 13 16 10 10 10 16 10 3 6 13 10 13 10 10 10
35 52 52 58 61 61 58 58 52 45 52 48 48 48 45 39 39 35 39 35 35 32 32 29 26 23 23 16 13 13 13 10 10 10 0 0 0 10 10 13 13 13 13
42 45 52 58 61 61 58 58 52 48 48 48 48 48 45 39 35 32 32 32 32 29 29 26 23 19 19 13 16 13 13 16 6 0 0 0 0 10 10 13 13 16 10
35 42 52 58 61 58 58 58 58 52 45 45 48 48 45 39 35 32 26 26 26 29 29 19 16 16 16 16 16 13 16 10 6 0 0 0 0 10 10 10 10 13 10
32 35 48 55 58 55 58 55 55 52 45 45 45 48 42 35 32 29 26 23 19 19 19 16 16 16 16 16 16 13 6 6 3 0 0 0 0 10 10 10 13 10 10
32 39 39 52 52 52 52 55 52 52 48 45 45 45 42 35 29 29 19 23 16 16 10 16 16 16 16 16 13 10 6 0 0 0 0 0 0 3 6 10 10 10 10
32 39 35 39 45 48 45 39 45 48 45 45 45 39 35 32 26 23 19 16 13 13 10 13 16 16 16 10 10 6 3 0 0 0 0 0 3 3 3 10 10 10 10
29 35 35 35 32 32 39 39 35 39 42 39 35 23 19 13 16 13 10 13 13 13 10 10 13 16 13 6 6 6 3 0 0 0 0 0 3 3 3 6 10 10 10
19 26 32 29 26 19 23 26 29 26 23 16 6 3 6 6 6 6 10 10 10 10 10 10 10 13 10 6 6 6 0 0 0 0 0 0 3 3 6 6 10 10 10
16 23 19 16 16 19 16 23 23 16 10 10 3 3 3 3 3 6 0 3 10 10 10 10 6 3 0 3 3 0 0 0 0 0 0 0 3 6 6 6 10 10 10
10 13 23 16 10 10 10 6 16 10 6 3 3 0 0 0 0 0 0 0 0 0 0 0 0 0 0 0 0 0 0 0 0 0 0 0 6 6 3 6 6 6 6
6 6 6 13 10 6 6 3 3 3 3 3 3 0 0 3 0 0 0 0 0 0 0 0 0 0 0 0 0 0 0 0 0 0 0 0 3 10 3 10 6 6 6
3 3 6 6 3 6 3 3 3 0 0 0 0 0 0 0 3 0 0 0 0 0 0 0 0 0 0 0 0 0 0 0 0 0 0 0 0 6 6 3 6 6 6
3 3 3 3 0 0 0 0 0 0 0 0 0 0 0 0 0 0 0 0 0 0 0 0 0 0 0 0 0 0 0 0 0 0 0 0 0 0 6 3 3 6 10
3 3 3 0 0 0 0 0 0 0 0 0 0 0 0 0 0 0 0 0 0 0 0 0 0 0 0 0 0 0 0 0 0 0 0 0 0 0 0 3 6 3 6
0 3 3 0 0 0 0 0 0 0 0 0 0 0 0 0 0 0 0 0 0 0 0 0 0 0 0 0 0 0 0 0 0 0 0 0 0 0 0 0 3 6 10
0 0 3 0 0 0 0 0 0 0 0 0 0 0 0 0 0 0 0 0 0 0 0 0 0 0 0 0 0 0 0 0 0 0 0 0 0 0 0 0 0 0 6
0 0 3 0 0 0 0 0 3 0 0 0 0 0 0 0 0 0 0 0 0 0 0 0 0 0 0 0 0 0 0 0 0 0 0 0 0 0 0 0 0 0 0
0 0 0 0 0 0 0 0 3 3 3 0 0 0 0 0 0 0 0 0 0 0 0 0 0 0 0 0 0 0 0 0 0 0 0 0 0 0 0 0 0 0 0
0 0 0 0 0 0 0 0 0 3 0 0 0 0 0 0 0 0 0 0 0 0 0 0 0 0 0 0 0 0 0 0 0 0 0 0 0 0 0 0 0 0 0
0 0 0 0 0 0 0 0 0 0 0 0 0 0 0 0 0 0 0 0 0 0 0 0 0 0 0 0 0 0 0 0 0 0 0 0 0 0 0 0 0 0 0
0 0 0 0 0 0 0 0 0 0 0 0 0 0 0 0 0 0 0 0 0 0 0 0 0 0 0 0 0 0 0 0 0 0 0 0 0 0 0 0 0 0 0
0 0 0 0 0 0 0 0 0 0 0 0 0 0 0 0 0 0 0 0 0 0 0 0 0 0 0 0 0 0 0 0 0 0 0 0 0 0 0 0 0 0 0
0 0 0 0 0 0 0 0 0 0 0 0 0 0 0 0 0 0 0 0 0 0 0 0 0 0 0 0 0 0 0 0 0 0 0 0 0 0 0 0 0 0 0
Height
5855 5856 5857 5859 5860 5861 5862 5864 5865 5866 5867 5868 5869 5869 5870 5871 5871 5871 5872 5872 5872 5872 5872 5872 5872 5872 5871 5871 5871 5870 5870 5869 5868 5868 5867 5866 5865 5864 5863 5862 5861 5860 5859
5852 5853 5854 5856 5857 5859 5860 5861 5862 5864 5865 5866 5867 5867 5868 5869 5869 5870 5870 5870 5870 5870 5870 5870 5870 5870 5870 5870 5869 5869 5868 5868 5867 5866 5865 5864 5863 5862 5861 5860 5859 5858 5857
5848 5850 5851 5852 5854 5856 5857 5858 5860 5861 5862 5863 5864 5865 5866 5866 5867 5867 5868 5868 5868 5868 5868 5868 5868 5868 5868 5868 5868 5867 5867 5866 5865 5865 5864 5863 5862 5861 5860 5859 5858 5856 5855
5843 5845 5847 5848 5850 5852 5853 5855 5857 5858 5859 5860 5861 5862 5863 5864 5864 5865 5865 5865 5866 5866 5866 5866 5866 5866 5866 5866 5866 5865 5865 5864 5863 5863 5862 5861 5860 5859 5858 5857 5856 5854 5853
5838 5840 5842 5844 5845 5847 5849 5851 5853 5854 5856 5857 5858 5859 5860 5861 5861 5862 5862 5862 5863 5863 5863 5863 5863 5863 5863 5863 5863 5863 5862 5862 5861 5860 5859 5859 5858 5857 5856 5854 5853 5852 5851
5832 5834 5836 5839 5840 5842 5844 5846 5848 5850 5851 5853 5854 5855 5856 5857 5858 5858 5859 5859 5859 5860 5860 5860 5860 5860 5860 5860 5860 5860 5859 5859 5859 5858 5857 5856 5855 5854 5853 5852 5851 5850 5848
5825 5828 5830 5832 5835 5836 5838 5841 5843 5845 5847 5848 5850 5851 5852 5853 5854 5855 5855 5855 5856 5856 5856 5856 5857 5857 5857 5857 5857 5856 5856 5856 5855 5855 5854 5853 5852 5851 5850 5849 5848 5847 5846
5818 5821 5823 5826 5828 5830 5833 5835 5837 5839 5841 5843 5845 5846 5847 5848 5849 5850 5851 5851 5852 5852 5852 5852 5853 5853 5853 5853 5853 5853 5852 5852 5852 5851 5851 5850 5849 5848 5847 5846 5845 5844 5842
5810 5813 5816 5818 5821 5824 5826 5829 5831 5833 5835 5837 5839 5840 5842 5843 5844 5845 5846 5847 5847 5848 5848 5848 5848 5848 5848 5849 5849 5849 5848 5848 5848 5847 5847 5847 5846 5845 5844 5843 5841 5840 5838
5801 5805 5808 5811 5813 5816 5819 5822 5824 5826 5828 5830 5832 5834 5836 5837 5839 5840 5841 5841 5842 5842 5843 5843 5843 5843 5843 5844 5844 5844 5843 5843 5843 5843 5843 5842 5842 5841 5840 5839 5838 5836 5835
5792 5796 5799 5802 5805 5808 5811 5814 5817 5819 5821 5823 5825 5828 5829 5831 5832 5833 5834 5835 5836 5837 5837 5837 5837 5837 5838 5838 5838 5839 5838 5838 5838 5838 5838 5838 5838 5837 5836 5834 5833 5832 5830
5783 5786 5790 5793 5796 5799 5803 5806 5808 5810 5813 5816 5818 5820 5822 5824 5825 5827 5828 5829 5830 5830 5831 5831 5831 5831 5831 5832 5832 5833 5833 5833 5833 5833 5833 5833 5833 5832 5831 5830 5828 5827 5825
5772 5776 5780 5784 5787 5790 5794 5797 5800 5801 5804 5808 5810 5813 5815 5816 5818 5819 5820 5821 5822 5823 5824 5824 5824 5824 5825 5826 5826 5827 5828 5828 5828 5828 5828 5828 5828 5827 5826 5825 5823 5822 5820
5762 5765 5769 5774 5777 5781 5784 5788 5791 5793 5796 5799 5801 5804 5806 5808 5810 5811 5813 5814 5815 5816 5816 5817 5817 5818 5818 5819 5820 5821 5822 5822 5823 5823 5823 5822 5822 5821 5820 5819 5818 5816 5815
5751 5755 5759 5763 5767 5771 5774 5778 5781 5784 5787 5790 5792 5795 5797 5799 5801 5803 5804 5806 5807 5808 5809 5809 5810 5811 5812 5812 5813 5814 5815 5816 5816 5816 5816 5816 5816 5815 5814 5813 5812 5810 5809
5740 5744 5748 5753 5757 5761 5765 5768 5771 5774 5776 5780 5782 5785 5787 5789 5791 5793 5795 5797 5798 5800 5801 5802 5803 5804 5804 5806 5807 5808 5808 5809 5810 5810 5810 5810 5810 5809 5808 5807 5806 5804 5802
5730 5734 5738 5742 5747 5751 5755 5758 5761 5764 5766 5769 5772 5775 5777 5779 5782 5784 5785 5787 5789 5791 5792 5794 5795 5796 5797 5798 5800 5800 5801 5802 5803 5803 5803 5803 5803 5802 5802 5801 5799 5798 5796
5719 5723 5728 5732 5736 5741 5745 5748 5751 5754 5756 5759 5762 5765 5768 5770 5772 5774 5776 5778 5780 5782 5784 5786 5787 5789 5790 5791 5792 5793 5794 5795 5795 5796 5796 5796 5796 5795 5795 5794 5792 5791 5789
5709 5712 5717 5721 5726 5730 5734 5738 5741 5744 5746 5749 5752 5755 5758 5760 5763 5765 5767 5770 5772 5774 5776 5778 5779 5781 5782 5783 5785 5786 5787 5788 5788 5788 5789 5789 5789 5788 5787 5786 5785 5783 5781
5698 5702 5706 5710 5715 5719 5723 5727 5730 5734 5736 5739 5742 5746 5748 5751 5753 5756 5758 5760 5763 5765 5767 5769 5771 5773 5774 5776 5777 5779 5779 5780 5781 5781 5781 5781 5781 5781 5780 5779 5777 5776 5774
5688 5692 5696 5700 5705 5709 5713 5717 5720 5723 5726 5730 5732 5736 5738 5741 5743 5746 5749 5752 5754 5757 5759 5761 5763 5764 5766 5767 5769 5771 5771 5772 5773 5773 5774 5774 5774 5773 5772 5771 5769 5768 5766
5678 5682 5686 5690 5694 5698 5702 5706 5710 5712 5715 5719 5722 5725 5728 5731 5734 5737 5740 5743 5745 5748 5750 5752 5754 5756 5758 5759 5761 5763 5764 5765 5765 5766 5766 5766 5766 5765 5764 5763 5761 5760 5758
5668 5672 5676 5680 5684 5688 5692 5696 5699 5702 5704 5708 5712 5715 5719 5721 5725 5728 5731 5734 5736 5739 5741 5743 5745 5747 5749 5750 5752 5754 5755 5756 5758 5759 5758 5758 5758 5757 5756 5754 5753 5751 5749
5659 5662 5667 5670 5674 5678 5682 5685 5689 5692 5695 5698 5702 5705 5709 5712 5715 5719 5722 5725 5728 5730 5732 5734 5736 5738 5740 5742 5743 5745 5746 5748 5749 5750 5751 5750 5749 5749 5747 5746 5744 5742 5740
5649 5653 5657 5661 5664 5668 5672 5675 5679 5682 5684 5687 5691 5695 5699 5702 5705 5709 5712 5715 5718 5721 5723 5725 5727 5728 5731 5733 5734 5736 5737 5738 5739 5740 5742 5742 5741 5740 5738 5737 5735 5733 5731
5640 5644 5647 5651 5654 5658 5661 5665 5668 5671 5673 5677 5680 5684 5688 5692 5695 5699 5702 5706 5709 5711 5714 5716 5718 5720 5722 5723 5725 5726 5728 5729 5730 5731 5732 5732 5732 5731 5730 5727 5726 5724 5722
Wind_Speed
18 18 18 17 17 16 16 15 14 14 13 12 12 11 10 10 10 10 9 9 9 9 8 8 8 7 7 7 7 7 7 7 7 7 7 7 7 8 8 9 9 9 10
20 20 20 19 18 18 17 17 16 16 15 14 13 13 12 12 11 11 11 11 11 10 10 10 9 9 9 8 8 8 8 8 7 7 8 8 8 9 9 9 10 10 11
23 22 22 21 20 19 19 19 19 18 17 16 15 15 14 13 13 13 13 13 13 12 12 11 11 11 10 10 9 9 9 9 9 9 9 9 9 10 10 10 10 11 11
25 24 24 23 22 21 21 20 20 20 20 18 17 16 16 15 15 15 15 15 15 14 13 13 13 13 12 12 11 11 10 10 10 10 10 10 10 11 11 11 11 12 12
27 26 26 25 25 24 23 22 22 22 22 21 20 19 18 17 17 16 16 17 16 16 15 15 15 14 14 14 13 13 12 12 12 12 12 12 12 12 12 12 12 13 13
29 29 28 27 27 26 25 25 24 24 23 23 22 21 20 19 19 18 18 18 18 17 17 17 16 16 15 15 15 15 14 14 14 14 13 13 13 13 13 13 13 14 15
31 30 30 30 29 29 28 27 27 26 26 25 24 23 22 22 21 20 20 20 20 19 19 19 18 18 17 17 17 17 16 16 16 15 15 14 14 14 14 14 15 16 17
33 32 33 32 32 31 31 30 29 29 28 28 27 26 25 24 23 22 21 22 22 22 21 20 20 20 19 19 18 18 18 18 17 17 16 16 16 16 16 16 17 17 18
36 35 35 34 34 33 32 32 31 31 31 30 29 28 27 27 25 24 24 23 23 23 23 23 22 22 21 21 21 20 19 19 19 18 18 18 17 17 17 18 18 19 20
38 37 37 36 36 35 34 34 33 33 33 32 31 31 30 29 27 27 26 26 26 25 25 24 24 23 23 23 23 22 21 21 20 19 19 19 19 19 19 20 20 21 22
40 40 39 38 38 38 37 36 36 35 35 34 34 33 32 31 30 29 28 28 27 27 26 26 26 26 25 25 25 24 23 22 22 21 20 20 21 21 21 22 22 23 24
42 41 41 40 40 39 39 38 38 37 37 36 36 35 34 33 32 32 31 30 29 28 28 28 28 28 27 27 26 25 24 23 23 22 22 22 22 22 23 23 24 24 25
43 43 43 42 41 40 40 40 39 39 39 38 38 37 36 35 34 34 33 32 31 30 29 29 29 29 29 28 27 26 26 25 24 24 23 23 24 24 24 25 25 26 26
43 44 44 43 42 42 41 41 41 41 40 40 39 38 37 36 35 36 35 34 33 32 31 30 30 29 29 29 28 27 27 28 27 26 25 25 25 25 25 26 26 27 27
44 44 45 45 44 43 42 41 41 42 43 42 42 40 39 38 37 37 36 35 34 33 32 31 30 30 30 29 29 29 28 28 28 28 27 27 27 27 27 28 28 28 29
44 44 44 45 45 44 43 41 42 41 42 43 42 41 41 40 38 37 37 36 35 34 33 32 32 31 30 30 30 30 29 29 29 29 29 28 28 28 28 28 29 29 30
44 45 45 45 45 45 44 43 43 42 43 44 43 42 40 40 38 38 38 38 37 36 35 34 33 32 32 32 31 31 30 30 29 30 30 29 29 30 30 30 30 30 31
45 44 45 45 45 45 44 43 44 43 43 43 43 43 42 40 40 39 38 37 36 35 34 34 33 33 32 32 32 31 31 31 31 31 31 31 31 31 31 31 31 31 32
45 45 45 45 46 46 45 43 43 43 43 42 43 44 43 42 41 40 38 37 36 35 35 35 34 34 34 33 33 32 32 32 31 32 32 32 32 32 32 32 32 33 33
45 44 45 46 46 46 46 44 45 45 44 42 42 44 44 43 42 42 39 37 37 36 36 35 35 35 34 33 33 32 32 32 32 32 32 33 32 33 33 34 34 34 34
45 44 44 45 46 46 47 46 44 45 45 44 43 43 44 44 42 42 41 38 37 38 37 36 35 35 34 34 34 33 33 33 33 33 33 33 33 34 34 35 35 35 35
43 43 44 44 45 45 46 47 47 45 45 45 44 43 43 44 43 43 42 41 39 37 37 37 37 36 35 35 35 35 35 34 34 34 34 33 34 35 35 36 36 36 37
42 42 43 44 45 46 45 47 48 48 46 46 45 44 45 45 44 43 42 42 41 39 38 37 37 37 36 37 37 37 37 36 35 35 35 35 35 35 36 37 37 37 38
42 42 43 43 44 45 46 46 47 47 47 46 45 44 45 46 46 45 44 42 42 41 38 37 38 38 37 37 38 38 38 38 37 36 36 37 37 37 37 38 38 38 38
41 42 43 43 43 44 45 45 45 45 46 45 45 45 46 46 46 45 45 44 42 41 40 39 37 37 37 37 38 38 38 38 38 38 37 37 38 38 38 38 39 39 39
40 41 42 43 44 45 45 45 46 45 45 46 46 46 46 47 47 45 45 45 44 42 41 40 39 39 39 38 38 38 38 38 38 38 38 38 39 38 39 39 38 39 39
Wind_Direction
242 240 238 236 234 233 234 236 237 239 238 237 238 240 240 242 241 241 240 241 244 248 250 252 254 259 265 271 277 284 290 294 296 296 298 302 308 312 314 317 319 321 323
242 240 238 237 236 234 235 237 238 239 240 239 239 241 242 243 244 245 245 246 248 251 253 255 258 261 265 268 274 280 286 291 293 296 300 302 305 308 309 311 313 315 318
243 241 238 237 237 236 235 236 238 239 240 240 241 243 243 243 246 248 249 249 250 252 255 258 260 260 264 268 271 277 281 285 289 293 296 300 302 304 306 306 308 310 313
244 243 240 238 238 237 237 237 238 240 240 241 243 244 243 244 246 248 251 251 251 252 255 259 260 261 264 267 269 273 277 281 284 288 291 294 298 299 301 304 305 307 309
243 243 242 239 238 238 237 238 238 239 240 241 242 244 245 245 247 248 251 253 253 254 255 257 259 263 265 267 269 270 274 278 281 284 287 290 293 295 297 300 302 303 305
244 243 243 241 239 239 238 238 238 239 240 241 243 245 246 246 248 250 251 252 253 255 255 256 258 262 265 266 269 271 273 277 279 282 285 288 291 292 295 297 299 301 303
244 244 243 242 240 239 239 239 239 240 241 242 245 246 246 247 248 251 252 252 253 254 256 257 258 261 264 266 268 272 273 275 277 279 282 286 289 291 292 295 297 299 301
245 244 243 242 241 240 239 239 239 240 241 243 245 247 247 248 249 251 252 253 254 255 256 259 260 261 263 266 268 271 273 274 275 277 281 284 286 289 292 294 296 298 299
245 244 243 242 241 241 241 240 239 240 241 242 244 245 247 248 251 252 253 254 255 257 258 260 262 262 262 265 267 269 271 273 272 274 277 281 284 286 290 292 295 297 298
244 243 243 241 241 241 241 242 241 241 241 242 243 244 246 248 251 253 254 255 257 258 259 261 262 262 263 264 265 267 270 271 270 270 274 278 281 284 288 292 294 297 298
243 242 241 241 241 241 241 241 242 242 243 244 245 245 247 249 251 253 255 257 259 260 261 262 263 262 263 263 262 263 267 269 269 269 272 276 280 283 287 290 293 295 297
243 242 241 241 240 240 241 241 242 243 243 244 245 247 247 249 252 254 256 257 259 261 262 263 264 263 262 262 262 261 263 266 267 269 271 275 278 282 285 289 292 294 296
243 242 241 240 240 240 241 241 242 244 243 244 246 247 248 250 252 254 256 257 259 261 262 263 263 263 263 262 261 260 260 263 266 268 270 274 277 280 284 287 290 292 295
241 240 239 238 238 240 241 240 241 243 244 245 245 247 248 250 252 254 255 257 258 260 261 261 263 262 262 261 261 261 262 262 264 267 270 272 276 279 283 286 288 291 293
241 238 238 237 237 238 241 240 241 243 244 244 245 246 247 249 252 254 255 256 258 259 260 260 261 261 261 260 260 260 261 262 264 267 269 272 275 278 282 285 287 290 292
241 238 239 238 237 238 239 240 241 242 244 245 246 246 247 249 250 252 253 255 256 257 258 259 259 260 261 261 260 259 260 262 264 266 268 270 273 276 280 284 287 290 292
240 239 238 239 238 238 239 240 242 244 245 245 245 245 246 248 250 252 254 253 254 255 255 256 259 260 261 260 258 259 261 262 263 265 267 269 272 275 278 281 285 289 291
241 240 239 238 239 238 239 240 241 243 243 244 245 245 245 247 249 251 252 253 252 253 253 255 258 260 260 260 259 259 260 262 262 265 267 269 271 274 277 280 284 287 289
240 241 239 238 238 238 238 240 241 242 242 242 244 245 245 247 248 249 251 252 252 253 253 255 257 258 259 259 259 260 261 263 264 266 267 269 271 275 277 280 283 286 288
239 240 240 239 239 239 239 240 242 241 242 242 243 245 246 247 248 248 250 252 252 253 254 255 256 259 259 258 258 261 263 263 263 266 267 269 272 275 278 280 283 285 287
239 239 239 239 239 239 239 239 241 242 243 243 243 246 247 246 246 246 248 250 250 251 252 254 256 258 258 257 258 259 262 264 264 265 267 269 271 275 278 280 283 286 288
238 238 238 238 238 238 239 239 240 243 243 244 245 245 246 244 244 245 247 248 249 250 252 255 255 255 256 256 258 260 262 262 263 266 267 267 270 274 278 281 283 285 287
239 238 239 239 240 240 241 241 242 243 245 245 245 244 244 244 244 244 246 248 250 251 254 254 255 254 254 255 257 260 262 263 264 266 267 268 271 274 277 280 283 285 286
240 239 240 241 241 241 242 242 243 244 245 245 243 242 243 244 244 245 246 249 250 253 254 254 255 254 254 255 257 259 262 264 266 267 269 270 272 274 277 279 282 283 285
241 241 241 241 240 241 242 243 243 244 245 245 244 242 242 244 245 245 247 249 250 252 253 254 255 255 255 257 259 260 262 265 267 268 269 271 272 274 278 280 281 282 284
243 242 242 241 241 242 243 244 244 245 246 245 244 242 243 245 245 246 248 247 249 252 254 256 257 257 257 257 258 260 262 265 267 268 269 271 272 275 278 280 281 283 284